TOM303 DTNH-EGNT

Flight info

Callsign TOM303
Flight time N/A
Altitude 36000
Route VAXAL1D VAXAL A411 TUC UM733 OSMAR DCT PIRIX DCT CAR DCT GIGGI DCT UPDUT DCT CORSI DCT OMEDA DCT MERLU DCT PIGOS DCT BARSO DCT OKTET DCT GIPNO DCT BULOL DCT IDAVO DCT BAGBI DCT SIZZA DCT LAULY DCT BRY DCT CLM DCT KOPOR DCT VESAN DCT RATUK DCT SOVAT L613 MAMUL UY250 RIMTO
Aircraft B738/M-SDE2E3FGHIRWXY/LB1

Departure

Time 2026-05-04 11:31
Airport Enfidha - Hammamet International Airport (DTNH)

Arrival

Time N/A
Airport Newcastle International Airport (EGNT)
Time Latitude Longitude Altitude Speed Heading
2026-05-04 10:41 36.08171 10.43972 16 ft 0 kts 330°
2026-05-04 10:46 36.08334 10.43614 16 ft 0 kts 135°
2026-05-04 10:47 36.08188 10.43735 15 ft 0 kts 66°
2026-05-04 11:16 36.08165 10.43664 19 ft 4 kts 83°
2026-05-04 11:16 36.08167 10.43633 20 ft 4 kts 118°
2026-05-04 11:16 36.08173 10.43622 20 ft 1 kts 136°
2026-05-04 11:24 36.08154 10.43644 20 ft 7 kts 136°
2026-05-04 11:25 36.08119 10.43684 20 ft 7 kts 142°
2026-05-04 11:25 36.08075 10.43689 22 ft 7 kts 197°
2026-05-04 11:25 36.08046 10.43648 25 ft 7 kts 261°
2026-05-04 11:26 36.08046 10.43477 21 ft 16 kts 271°
2026-05-04 11:27 36.07751 10.42875 31 ft 19 kts 270°
2026-05-04 11:28 36.07751 10.42691 31 ft 24 kts 270°
2026-05-04 11:28 36.07752 10.42490 33 ft 23 kts 270°
2026-05-04 11:28 36.07753 10.42313 32 ft 18 kts 270°
2026-05-04 11:28 36.07753 10.42198 30 ft 13 kts 270°
2026-05-04 11:29 36.07751 10.42091 29 ft 12 kts 258°
2026-05-04 11:29 36.07684 10.42043 29 ft 12 kts 182°
2026-05-04 11:29 36.07604 10.42054 29 ft 12 kts 147°
2026-05-04 11:29 36.07583 10.42150 31 ft 15 kts 90°
2026-05-04 11:31 36.11146 10.48972 2537 ft 248 kts 339°
2026-05-04 11:33 36.25862 10.49163 7971 ft 286 kts 11°
2026-05-04 11:33 36.27828 10.49321 8703 ft 284 kts 347°
2026-05-04 11:33 36.29730 10.48692 9500 ft 284 kts 342°
2026-05-04 11:34 36.31626 10.47979 10248 ft 286 kts 341°
2026-05-04 11:34 36.33571 10.47244 10636 ft 302 kts 340°
2026-05-04 11:34 36.35661 10.46459 10787 ft 325 kts 341°
2026-05-04 11:34 36.37899 10.45637 11042 ft 343 kts 342°
2026-05-04 11:35 36.40220 10.44799 11581 ft 350 kts 342°
2026-05-04 11:35 36.42566 10.43965 12269 ft 353 kts 341°
2026-05-04 11:35 36.44938 10.43130 12942 ft 356 kts 341°
2026-05-04 11:35 36.47336 10.42289 13554 ft 361 kts 342°
2026-05-04 11:36 36.49769 10.41438 14171 ft 364 kts 342°
2026-05-04 11:36 36.52215 10.40584 14821 ft 366 kts 342°
2026-05-04 11:36 36.54670 10.39728 15488 ft 367 kts 342°
2026-05-04 11:36 36.57136 10.38868 16131 ft 369 kts 341°
2026-05-04 11:37 36.59624 10.37998 16678 ft 374 kts 342°
2026-05-04 11:37 36.62137 10.37119 17249 ft 377 kts 342°
2026-05-04 11:37 36.64670 10.36233 17857 ft 379 kts 341°
2026-05-04 11:37 36.67220 10.35341 18432 ft 383 kts 341°
2026-05-04 11:38 36.69792 10.34440 18916 ft 386 kts 341°
2026-05-04 11:38 36.72382 10.33532 19417 ft 388 kts 341°
2026-05-04 11:38 36.74986 10.32619 19928 ft 390 kts 341°
2026-05-04 11:38 36.77614 10.31697 20413 ft 393 kts 341°
2026-05-04 11:39 36.80255 10.30769 20896 ft 396 kts 341°
2026-05-04 11:39 36.82918 10.29833 21348 ft 399 kts 341°
2026-05-04 11:40 36.98327 10.24404 23873 ft 414 kts 341°
2026-05-04 11:41 37.01108 10.23421 24241 ft 416 kts 341°
2026-05-04 11:41 37.04806 10.22115 24755 ft 418 kts 340°
2026-05-04 11:41 37.06696 10.21446 24993 ft 419 kts 340°
2026-05-04 11:41 37.09509 10.20450 25361 ft 421 kts 340°
2026-05-04 11:42 37.12337 10.19448 25682 ft 424 kts 340°
2026-05-04 11:42 37.15185 10.18438 25989 ft 427 kts 340°
2026-05-04 11:42 37.18053 10.17420 26351 ft 428 kts 340°
2026-05-04 11:42 37.20925 10.16400 26711 ft 430 kts 340°
2026-05-04 11:43 37.23807 10.15376 27027 ft 432 kts 340°
2026-05-04 11:43 37.26703 10.14346 27358 ft 434 kts 340°
2026-05-04 11:43 37.29612 10.13311 27702 ft 436 kts 340°
2026-05-04 11:43 37.32532 10.12270 28016 ft 437 kts 340°
2026-05-04 11:44 37.35469 10.11223 28334 ft 439 kts 340°
2026-05-04 11:44 37.38413 10.10173 28631 ft 441 kts 340°
2026-05-04 11:44 37.41367 10.09117 28923 ft 442 kts 340°
2026-05-04 11:44 37.44334 10.08057 29214 ft 444 kts 339°
2026-05-04 11:45 37.47310 10.06992 29500 ft 446 kts 339°
2026-05-04 11:45 37.50298 10.05923 29788 ft 447 kts 339°
2026-05-04 11:45 37.53290 10.04851 30177 ft 446 kts 339°
2026-05-04 11:45 37.56252 10.03792 30714 ft 439 kts 339°
2026-05-04 11:46 37.59181 10.02744 31159 ft 436 kts 339°
2026-05-04 11:46 37.62097 10.01697 31397 ft 437 kts 339°
2026-05-04 11:46 37.65024 10.00643 31622 ft 438 kts 339°
2026-05-04 11:46 37.67953 9.99587 31928 ft 437 kts 339°
2026-05-04 11:47 37.70871 9.98536 32290 ft 435 kts 339°
2026-05-04 11:47 37.73780 9.97489 32620 ft 434 kts 339°
2026-05-04 11:47 37.76679 9.96443 32895 ft 433 kts 339°
2026-05-04 11:47 37.79564 9.95403 33376 ft 428 kts 338°
2026-05-04 11:48 37.82409 9.94378 33843 ft 423 kts 338°
2026-05-04 11:48 37.85240 9.93354 34082 ft 424 kts 338°
2026-05-04 11:48 37.88082 9.92323 34216 ft 426 kts 338°
2026-05-04 11:48 37.90931 9.91289 34426 ft 426 kts 338°
2026-05-04 11:49 37.93772 9.90259 34689 ft 424 kts 338°
2026-05-04 11:49 37.96602 9.89233 34947 ft 423 kts 338°
2026-05-04 11:49 37.99427 9.88208 35147 ft 422 kts 338°
2026-05-04 11:49 38.02221 9.87192 35312 ft 423 kts 338°
2026-05-04 11:50 38.05057 9.86160 35500 ft 423 kts 338°
2026-05-04 11:50 38.07881 9.85132 35720 ft 422 kts 338°
2026-05-04 11:50 38.10701 9.84106 35934 ft 421 kts 338°
2026-05-04 11:50 38.13520 9.83078 36068 ft 422 kts 338°
2026-05-04 11:51 38.16356 9.82042 36057 ft 426 kts 338°
2026-05-04 11:51 38.22084 9.79949 36068 ft 429 kts 338°
2026-05-04 11:52 38.27797 9.77899 36073 ft 424 kts 339°
2026-05-04 11:52 38.33471 9.76087 36075 ft 419 kts 340°